Location: Newark
(37.3394°N, 6.0261°W)
Time: 21:41:40
(UTC+00:00)

Envisat - Pass Details

Date: 27 March 2019
Orbit: 764 x 766 km, 98.2° (Epoch: 24 April)

Event Time Altitude Azimuth Distance (km) Brightness Sun altitude
Rises 20:30:56 0° 218° (SW) 3,220 6.4 -21.9°
Reaches altitude 10° 20:35:06 10° 252° (WSW) 2,301 6.1 -22.6°
Maximum altitude 20:36:38 11° 270° (W) 2,213 6.3 -22.9°
Drops below altitude 10° 20:38:11 10° 288° (WNW) 2,305 6.6 -23.2°
Sets 20:42:24 0° 322° (NW) 3,238 7.2 -24.0°
